Preview of NWS' New Version of Forecast
This preview is not operational and should not be used for support decisions.

Regional Weather Roundup (RWR)

Issued by National Weather Service (NWS)

                            
000
ASUS43 KDTX 211110
RWRMI 
MICHIGAN HOURLY REGIONAL WEATHER ROUNDUP
NATIONAL WEATHER SERVICE DETROIT/PONTIAC MI
700 AM EDT SUN APR 21 2019

NOTE: "FAIR" INDICATES FEW OR NO CLOUDS BELOW 12,000 FEET WITH NO
SIGNIFICANT WEATHER AND/OR OBSTRUCTION TO VISIBILITY.

MIZ047>049-052>055-059>063-066>070-074>076-081>083-211200-
SOUTHEAST LOWER MICHIGAN
  
CITY           SKY/WX    TMP DP  RH WIND       PRES   REMARKS
ADRIAN         FAIR      37  36  96 CALM      29.96R                  
ALMA           CLOUDY    41  39  93 W5        29.95R                  
ANN ARBOR      FAIR      40  39  97 W3        29.94R                  
BAD AXE        MOCLDY    35  34  98 SW3       29.90S                  
CARO           CLOUDY    35  34  96 CALM      29.92R                  
DETROIT CITY   MOCLDY    43  40  89 W5        29.94R                  
DETROIT        CLOUDY    44  40  85 NW5       29.95R                  
FLINT          FAIR      33  32  96 CALM      29.94R                  
GROSSE ILE     CLOUDY    43  42  94 CALM      29.95R                  
HILLSDALE      FAIR      36  34  92 NW3       29.94R FOG              
HOWELL         FOG       35  34  96 SW5       29.93R VSB 1/2 WCI  31  

CITY           SKY/WX    TMP DP  RH WIND       PRES   REMARKS
JACKSON        FAIR      34  34 100 S5        29.94S WCI  30          
LAMBERTVILLE   CLOUDY    43  42  96 W6        29.95R                  
LANSING        CLOUDY    34  34 100 S3        29.94R                  
LAPEER         FAIR      37  37 100 CALM      29.93R                  
MASON          FAIR      35  34  96 CALM      29.94R FOG              
MONROE         CLOUDY    44  43  97 W5        29.94R                  
MT. CLEMENS    FAIR      39  39 100 CALM      29.93R                  
PONTIAC        FAIR      39  39 100 NW5       29.92R                  
PORT HOPE        N/A     38  34  85 SW6       29.88R WCI  33          
TRI CITIES     CLOUDY    38  37  97 SW3       29.93R                  
MIDLAND        CLOUDY    37  35  93 CALM      29.93R                  
TROY           FAIR      42  39  88 W3        29.95R                  
SAGINAW HB     CLOUDY    37  36  93 S3        29.93R                  
$$
MIZ043>046-050>051-056>058-064>065-071>073-077>080-211200-
SOUTHWEST LOWER MICHIGAN
  
CITY           SKY/WX    TMP DP  RH WIND       PRES   REMARKS
BATTLE CREEK   MOCLDY    33  31  92 S3        29.94R                  
BENTON HARBOR  FAIR      37  32  82 S3        29.96R                  
BIG RAPIDS     CLOUDY    40  38  92 CALM      29.93R                  
COLDWATER      FAIR      34  34 100 CALM      29.95S FOG              
FREMONT        CLOUDY    43  40  88 CALM      29.94R                  
HOLLAND        CLOUDY    42  38  85 W6        29.95R                  
GRAND RAPIDS   MOCLDY    36  33  89 CALM      29.95R                  
IONIA          CLOUDY    41  38  89 W5        29.95R                  
KALAMAZOO      CLOUDY    34  33  96 SW3       29.95R                  
LUDINGTON      CLOUDY    47  40  74 SW8       29.92R                  
MARSHALL       FAIR      32  32 100 CALM      29.94R FOG              
MOUNT PLEASANT CLOUDY    42  40  92 CALM      29.93R                  
MUSKEGON       CLOUDY    44  37  76 S7        29.95R                  
SOUTH HAVEN    FAIR      38  36  93 CALM      29.96R                  
$$
MIZ016>042-211200-
NORTHERN LOWER MICHIGAN
  
CITY           SKY/WX    TMP DP  RH WIND       PRES   REMARKS
ALPENA         CLOUDY    43  30  60 W5        29.91R                  
BEAVER ISLAND  CLOUDY    48  10  21 SW6       29.88S                  
BELLAIRE       CLOUDY    42  35  74 CALM      29.92R                  
CADILLAC       CLOUDY    47  38  70 SW6       29.91R                  
CHARLEVOIX     CLOUDY    46  26  47 E5        29.93R                  
FRANKFORT      MOCLDY    50  36  59 SW7       29.91R                  
GAYLORD        CLOUDY    43  27  53 W5        29.89R                  
GRAYLING       CLOUDY    41  27  58 CALM      29.90R                  
HARBOR SPRINGS CLOUDY    44  26  50 CALM      29.90R                  
HOUGHTON LAKE  CLOUDY    43  37  79 CALM      29.91R                  
MANISTEE       CLOUDY    43  37  79 CALM      29.92R                  
OSCODA         CLOUDY    35  32  89 CALM      29.90R                  
PELLSTON       CLOUDY    43  33  68 CALM      29.90R                  
ROGERS CITY    CLOUDY    45  28  50 W3        29.91R                  
TRAVERSE CITY  CLOUDY    49  37  63 SW6       29.89R                  
$$
MIZ007>008-015-211200-
EASTERN UPPER MICHIGAN
  
CITY           SKY/WX    TMP DP  RH WIND       PRES   REMARKS
KINROSS        CLOUDY    44  21  40 S3        29.88R                  
MACKINAC ISLAN CLOUDY    43  23  45 SW9       29.89R                  
NEWBERRY       CLOUDY    46  16  29 CALM      29.87R                  
S. S. MARIE    CLOUDY    46  31  55 E3        29.87R                  
MUNISING         N/A     48  32  53 SW8       29.83R                  
$$
MIZ004>006-011>014-085-211200-
CENTRAL UPPER MICHIGAN
  
CITY           SKY/WX    TMP DP  RH WIND       PRES   REMARKS
MANISTIQUE     CLOUDY    44  18  35 S6        29.86R                  
ESCANABA       CLOUDY    46  28  49 S3        29.86R                  
MENOMINEE      CLOUDY    50  27  40 SW8       29.86R                  
SAWYER-GWINN   CLOUDY    46  25  42 CALM      29.83R                  
$$
MIZ001>003-009>011-084-211200-
WESTERN UPPER MICHIGAN
  
CITY           SKY/WX    TMP DP  RH WIND       PRES   REMARKS
IRON MOUNTAIN  MOCLDY    40  32  73 CALM      29.83R                  
HOUGHTON       CLOUDY    46  35  65 NE3       29.87R                  
COPPER HARBOR    N/A     39  31  72 N6        29.88R WCI  35          
IRONWOOD       CLOUDY    40  35  83 CALM      29.88R                  
$$

ABBREVIATIONS USED IN REMARKS
   TC - TEMPERATURE IN CELSIUS
  WCI - WIND CHILL INDEX
   HX - HEAT INDEX
  VSB - VISIBILITY